| time (UTC) | temp F | wind direction | speed knots | gust knots | rain 1hr in | rain 24hr in | rain mn in | humidity % | barometer mb |
| 20260505140204 | 52 | 98 | 0.0 | 0.0 | 0.00 | 0.01 | 0.01 | 91 | 1017.8 |
| 20260505130204 | 52 | 98 | 0.0 | 0.0 | 0.00 | 0.01 | 0.01 | 91 | 1017.5 |
| 20260505124204 | 52 | 98 | 0.0 | 0.0 | 0.01 | 0.01 | 0.01 | 90 | 1017.8 |
| 20260505123205 | 52 | 98 | 0.0 | 0.0 | 0.01 | 0.01 | 0.01 | 90 | 1017.8 |
| 20260505122704 | 52 | 98 | 0.0 | 0.0 | 0.01 | 0.01 | 0.01 | 90 | 1017.8 |
| 20260505122204 | 52 | 98 | 0.0 | 0.0 | 0.01 | 0.01 | 0.01 | 90 | 1017.7 |
| 20260505121705 | 52 | 98 | 0.0 | 0.0 | 0.01 | 0.01 | 0.01 | 90 | 1017.7 |
| 20260505121204 | 52 | 98 | 0.0 | 0.0 | 0.01 | 0.01 | 0.01 | 89 | 1017.6 |
| 20260505120704 | 52 | 98 | 0.0 | 0.0 | 0.01 | 0.01 | 0.01 | 89 | 1017.5 |
| 20260505120205 | 52 | 98 | 0.0 | 0.0 | 0.01 | 0.01 | 0.01 | 89 | 1017.5 |
| 20260505115704 | 52 | 98 | 0.0 | 0.0 | 0.01 | 0.01 | 0.01 | 89 | 1017.7 |
| 20260505114704 | 52 | 98 | 0.0 | 0.0 | 0.00 | 0.00 | 0.00 | 89 | 1017.7 |
| 20260505114204 | 52 | 98 | 0.0 | 0.0 | 0.00 | 0.00 | 0.00 | 88 | 1017.8 |
| 20260505113704 | 52 | 98 | 0.0 | 0.0 | 0.00 | 0.00 | 0.00 | 88 | 1017.7 |
| 20260505113205 | 52 | 98 | 0.0 | 0.0 | 0.00 | 0.00 | 0.00 | 88 | 1017.8 |
| 20260505112204 | 52 | 98 | 0.0 | 0.0 | 0.00 | 0.00 | 0.00 | 88 | 1017.9 |
| 20260505111704 | 52 | 98 | 0.0 | 0.0 | 0.00 | 0.00 | 0.00 | 88 | 1017.8 |
| 20260505111204 | 52 | 98 | 0.0 | 0.0 | 0.00 | 0.00 | 0.00 | 88 | 1017.8 |
| 20260505110705 | 52 | 98 | 0.0 | 0.0 | 0.00 | 0.00 | 0.00 | 87 | 1017.8 |
| 20260505110204 | 52 | 98 | 0.0 | 0.0 | 0.00 | 0.00 | 0.00 | 87 | 1017.8 |
| 20260505102205 | 53 | 98 | 0.0 | 0.0 | 0.00 | 0.00 | 0.00 | 85 | 1017.8 |
| 20260505101704 | 53 | 98 | 0.0 | 0.0 | 0.00 | 0.00 | 0.00 | 85 | 1017.8 |
| 20260505101204 | 53 | 98 | 0.0 | 0.0 | 0.00 | 0.00 | 0.00 | 85 | 1017.9 |
| 20260505100704 | 53 | 98 | 0.0 | 0.0 | 0.00 | 0.00 | 0.00 | 85 | 1017.9 |
| 20260505100204 | 53 | 98 | 0.0 | 0.9 | 0.00 | 0.00 | 0.00 | 85 | 1017.9 |
| 20260505095704 | 53 | 98 | 0.0 | 0.9 | 0.00 | 0.00 | 0.00 | 84 | 1018.0 |
| 20260505095204 | 53 | 124 | 0.0 | 0.0 | 0.00 | 0.00 | 0.00 | 84 | 1018.0 |
| 20260505094204 | 53 | 124 | 0.0 | 0.0 | 0.00 | 0.00 | 0.00 | 84 | 1017.8 |
| 20260505093704 | 53 | 124 | 0.0 | 0.0 | 0.00 | 0.00 | 0.00 | 84 | 1018.0 |
| 20260505093205 | 53 | 124 | 0.0 | 0.9 | 0.00 | 0.00 | 0.00 | 84 | 1018.1 |
| 20260505092705 | 53 | 124 | 0.0 | 0.9 | 0.00 | 0.00 | 0.00 | 84 | 1018.1 |
| 20260505090705 | 53 | 127 | 0.0 | 0.0 | 0.00 | 0.00 | 0.00 | 83 | 1018.3 |
| 20260505085705 | 53 | 127 | 0.0 | 0.0 | 0.00 | 0.00 | 0.00 | 83 | 1018.3 |
| 20260505083705 | 53 | 127 | 0.0 | 0.0 | 0.00 | 0.00 | 0.00 | 82 | 1018.5 |
| 20260505083205 | 53 | 127 | 0.0 | 0.0 | 0.00 | 0.00 | 0.00 | 82 | 1018.6 |
| 20260505082204 | 54 | 127 | 0.0 | 0.0 | 0.00 | 0.00 | 0.00 | 81 | 1018.6 |
| 20260505081704 | 54 | 127 | 0.0 | 0.0 | 0.00 | 0.00 | 0.00 | 81 | 1018.6 |
| 20260505081205 | 54 | 127 | 0.0 | 0.0 | 0.00 | 0.00 | 0.00 | 81 | 1018.7 |
| 20260505080704 | 54 | 127 | 0.0 | 0.9 | 0.00 | 0.00 | 0.00 | 80 | 1018.7 |
| 20260505080205 | 54 | 124 | 0.0 | 0.9 | 0.00 | 0.00 | 0.00 | 80 | 1018.7 |
| 20260505075704 | 54 | 125 | 0.0 | 1.7 | 0.00 | 0.00 | 0.00 | 80 | 1018.7 |
| 20260505075204 | 54 | 122 | 0.0 | 1.7 | 0.00 | 0.00 | 0.00 | 79 | 1018.8 |
| 20260505074204 | 55 | 102 | 0.0 | 0.9 | 0.00 | 0.00 | 0.00 | 78 | 1018.9 |
| 20260505073704 | 55 | 130 | 0.0 | 0.9 | 0.00 | 0.00 | 0.00 | 78 | 1018.8 |
| 20260505073206 | 55 | 131 | 0.0 | 0.9 | 0.00 | 0.00 | 0.00 | 78 | 1018.8 |
| 20260505072704 | 55 | 149 | 0.0 | 0.9 | 0.00 | 0.00 | 0.00 | 78 | 1018.9 |
| 20260505072205 | 55 | 128 | 0.0 | 0.9 | 0.00 | 0.00 | 0.00 | 77 | 1018.9 |
| 20260505071204 | 55 | 117 | 0.0 | 0.9 | 0.00 | 0.00 | 0.00 | 77 | 1018.7 |
| 20260505070707 | 55 | 124 | 0.0 | 0.9 | 0.00 | 0.00 | 0.00 | 77 | 1018.6 |
| 20260505070205 | 55 | 130 | 0.0 | 0.9 | 0.00 | 0.00 | 0.00 | 77 | 1018.5 |
| 20260505065205 | 55 | 125 | 0.0 | 0.9 | 0.00 | 0.00 | 0.00 | 77 | 1018.5 |
| 20260505064705 | 55 | 127 | 0.0 | 0.9 | 0.00 | 0.00 | 0.00 | 77 | 1018.4 |
| 20260505064205 | 55 | 122 | 0.0 | 0.9 | 0.00 | 0.00 | 0.00 | 78 | 1018.4 |
| 20260505063705 | 55 | 128 | 0.0 | 0.9 | 0.00 | 0.00 | 0.00 | 78 | 1018.5 |
| 20260505063205 | 55 | 128 | 0.0 | 0.9 | 0.00 | 0.00 | 0.00 | 78 | 1018.5 |
| 20260505062704 | 55 | 127 | 0.0 | 0.9 | 0.00 | 0.00 | 0.00 | 79 | 1018.4 |
| 20260505061704 | 55 | 125 | 0.0 | 1.7 | 0.00 | 0.00 | 0.00 | 78 | 1018.2 |
| 20260505060705 | 55 | 129 | 0.0 | 2.6 | 0.00 | 0.00 | 0.00 | 79 | 1018.1 |
| 20260505060205 | 55 | 127 | 0.0 | 2.6 | 0.00 | 0.00 | 0.00 | 79 | 1018.0 |
| 20260505055204 | 55 | 126 | 0.0 | 1.7 | 0.00 | 0.00 | 0.00 | 79 | 1018.2 |
| 20260505054705 | 55 | 126 | 0.9 | 2.6 | 0.00 | 0.00 | 0.00 | 79 | 1018.2 |
| 20260505054203 | 55 | 127 | 0.0 | 2.6 | 0.00 | 0.00 | 0.00 | 79 | 1018.2 |
| 20260505053703 | 55 | 128 | 0.9 | 2.6 | 0.00 | 0.00 | 0.00 | 80 | 1018.3 |
| 20260505052704 | 55 | 124 | 0.0 | 0.9 | 0.00 | 0.00 | 0.00 | 80 | 1018.5 |
| 20260505051703 | 56 | 127 | 0.0 | 0.9 | 0.00 | 0.00 | 0.00 | 80 | 1018.4 |
| 20260505051203 | 56 | 143 | 0.0 | 2.6 | 0.00 | 0.00 | 0.00 | 80 | 1018.7 |
| 20260505050203 | 56 | 131 | 0.9 | 2.6 | 0.00 | 0.00 | 0.00 | 80 | 1018.8 |
| 20260505041703 | 56 | 126 | 0.0 | 1.7 | 0.00 | 0.00 | 0.00 | 81 | 1018.2 |
| 20260505041204 | 56 | 126 | 0.0 | 0.9 | 0.00 | 0.00 | 0.00 | 81 | 1018.2 |
| 20260505040703 | 56 | 127 | 0.0 | 0.0 | 0.00 | 0.00 | 0.00 | 81 | 1018.2 |
| 20260505040204 | 56 | 125 | 0.0 | 0.9 | 0.00 | 0.00 | 0.00 | 81 | 1018.2 |
| 20260505035203 | 57 | 131 | 0.0 | 1.7 | 0.00 | 0.00 | 0.00 | 81 | 1018.0 |
| 20260505034203 | 57 | 123 | 0.0 | 2.6 | 0.00 | 0.00 | 0.00 | 80 | 1018.0 |
| 20260505033703 | 57 | 125 | 0.0 | 2.6 | 0.00 | 0.00 | 0.00 | 81 | 1017.9 |
| 20260505033203 | 57 | 136 | 0.0 | 0.9 | 0.00 | 0.00 | 0.00 | 80 | 1017.8 |
| 20260505031203 | 57 | 127 | 0.0 | 1.7 | 0.00 | 0.00 | 0.00 | 79 | 1017.5 |
| 20260505030703 | 57 | 128 | 0.0 | 0.9 | 0.00 | 0.00 | 0.00 | 79 | 1017.5 |
| 20260505030203 | 57 | 124 | 0.0 | 0.9 | 0.00 | 0.00 | 0.00 | 78 | 1017.5 |
| 20260505025703 | 58 | 126 | 0.0 | 0.9 | 0.00 | 0.00 | 0.00 | 78 | 1017.5 |
| 20260505024704 | 58 | 130 | 0.0 | 0.0 | 0.00 | 0.00 | 0.00 | 76 | 1017.5 |
| 20260505024204 | 58 | 131 | 0.0 | 0.0 | 0.00 | 0.00 | 0.00 | 76 | 1017.5 |
| 20260505023703 | 58 | 124 | 0.0 | 1.7 | 0.00 | 0.00 | 0.00 | 76 | 1017.6 |
| 20260505023204 | 59 | 128 | 0.0 | 1.7 | 0.00 | 0.00 | 0.00 | 75 | 1017.5 |
| 20260505022704 | 59 | 124 | 0.9 | 1.7 | 0.00 | 0.00 | 0.00 | 75 | 1017.5 |
| 20260505022203 | 59 | 124 | 0.0 | 0.0 | 0.00 | 0.00 | 0.00 | 74 | 1017.4 |
| 20260505021704 | 59 | 124 | 0.0 | 1.7 | 0.00 | 0.00 | 0.00 | 74 | 1017.4 |